Regional Weather Roundup
Issued by NWS

Home | Current Version | Previous Version | Graphics & Text | Print | Product List | Glossary On
Versions: 1 2 3 4 5 6 7 8 9 10 11 12 13 14 15 16 17 18 19 20 21 22 23 24 25 26 27 28 29 30 31 32 33 34 35 36 37 38 39 40 41 42 43 44 45 46 47 48 49 50
000
ASUS43 KLMK 232010
RWRKY
KENTUCKY REGIONAL WEATHER ROUNDUP
NATIONAL WEATHER SERVICE LOUISVILLE KY
400 PM EDT WED AUG 23 2017

NOTE "FAIR" INDICATES FEW OR NO CLOUDS BELOW 12,000 FEET
WITH NO SIGNIFICANT WEATHER AND/OR OBSTRUCTIONS TO VISIBILITY.

KYZ001>023-026-027-061>063-070>075-232100-
WESTERN AND SOUTH CENTRAL KENTUCKY

CITY           SKY/WX    TMP DP  RH WIND       PRES   REMARKS
PADUCAH        PTSUNNY   80  55  42 N9G20     30.02F
HENDERSON      NOT AVBL
OWENSBORO      PTSUNNY   79  58  48 NE7       30.02F
HOPKINSVILLE   MOSUNNY   79  56  45 N7        30.01F
BOWLING GREEN  MOSUNNY   82  59  45 VRB7G17   30.00F
GLASGOW        MOSUNNY   82  56  40 NW3       30.00F
$$

KYZ024-025-028>034-038-045-046-053-232100-
NORTH CENTRAL KENTUCKY

CITY           SKY/WX    TMP DP  RH WIND       PRES   REMARKS
LOUISVILLE/SDF PTSUNNY   82  53  36 NE6       30.00F
LOUISVILLE/LOU MOSUNNY   81  56  42 NE7       30.01F
FORT KNOX      PTSUNNY   76  56  49 N6        30.00F
$$

KYZ035>037-039>044-047>052-055>060-089>105-232100-
NORTHEAST KENTUCKY

CITY           SKY/WX    TMP DP  RH WIND       PRES   REMARKS
LEXINGTON      PTSUNNY   77  54  44 N7        30.01F
COVINGTON      PTSUNNY   78  56  46 NW6       30.01F
FRANKFORT      PTSUNNY   81  52  36 VRB5      30.00F
$$

KYZ054-064>069-076>088-106>120-232100-
SOUTHEAST KENTUCKY

CITY           SKY/WX    TMP DP  RH WIND       PRES   REMARKS
JACKSON        MOSUNNY   78  60  53 VRB5      30.00F
LONDON         PTSUNNY   77  59  53 N8        29.99F
SOMERSET       PTSUNNY   79  59  50 N7        30.00F
MIDDLESBORO    MOSUNNY   81  64  56 N8        29.97F
MONTICELLO     PTCLDY    79  64  60 N12       30.01F
$$





USA.gov is the U.S. government's official web portal to all federal, state and local government web resources and services.